EW6171 Weather Reports


time (UTC)temp
F
wind
direction
speed
knots
gust
knots
rain 1hr
in
rain 24hr
in
rain mn
in
humidity
%
barometer
mb
20260509031143 0 77 2.6 7.0 0.00 0.00 0.00 1006.7
20260509030637 0 76 3.5 7.0 0.00 0.00 0.00 1006.4
20260509030139 0 84 3.5 7.0 0.00 0.00 0.00 1006.1
20260509025626 0 80 3.5 7.0 0.00 0.00 0.00 1006.2
20260509025119 0 81 4.3 7.0 0.00 0.00 0.00 1006.1
20260509024831 0 89 3.5 6.1 0.00 0.00 0.00 1006.2
20260509024050 0 10 3.5 6.1 0.00 0.00 0.00 1006.1
20260509023540 0 93 3.5 7.0 0.00 0.00 0.00 1006.0
20260509023031 0 72 3.5 7.0 0.00 0.00 0.00 1005.8
20260509022520 0 81 2.6 7.0 0.00 0.00 0.00 1005.9
20260509022011 0 75 1.7 5.2 0.00 0.00 0.00 1005.8
20260509021500 0 10 1.7 3.5 0.00 0.00 0.00 1005.8
20260509020950 0 79 0.9 3.5 0.00 0.00 0.00 1005.9
20260509020447 0 86 0.9 3.5 0.00 0.00 0.00 1005.9
20260509020220 0 79 0.9 3.5 0.00 0.00 0.00 1005.7
20260509015448 0 50 1.7 4.3 0.00 0.00 0.00 1006.1
20260509014945 0 66 2.6 4.3 0.00 0.00 0.00 1005.7
20260509014446 0 82 1.7 3.5 0.00 0.00 0.00 1005.5
20260509013936 0 67 1.7 7.0 0.00 0.00 0.00 1005.6
20260509013427 0 73 2.6 7.0 0.00 0.00 0.00 1005.6
20260509012917 0 73 4.3 8.7 0.00 0.00 0.00 1005.3
20260509012407 0 90 4.3 8.7 0.00 0.00 0.00 1005.3
20260509011856 0 95 2.6 7.0 0.00 0.00 0.00 1005.3
20260509011346 0 78 2.6 5.2 0.00 0.00 0.00 1005.4
20260509011116 0 50 2.6 5.2 0.00 0.00 0.00 1005.6
20260509010334 0 85 3.5 7.0 0.00 0.00 0.00 1005.3
20260509005825 0 70 4.3 7.8 0.00 0.00 0.00 1005.2
20260509005315 0 79 4.3 8.7 0.00 0.00 0.00 1005.2
20260509005027 0 80 4.3 7.0 0.00 0.00 0.00 1005.0
20260509004250 0 10 4.3 7.8 0.00 0.00 0.00 1005.4
20260509003740 0 67 3.5 7.8 0.00 0.00 0.00 1005.4
20260509003230 0 73 3.5 7.0 0.00 0.00 0.00 1005.5
20260509002720 0 50 6.1 9.6 0.00 0.00 0.00 1005.2
20260509002211 0 93 5.2 9.6 0.00 0.00 0.00 1004.7
20260509001700 0 75 4.3 8.7 0.00 0.00 0.00 1005.1
20260509001201 0 92 4.3 8.7 0.00 0.00 0.00 1004.9
20260509000651 0 77 4.3 7.0 0.00 0.00 0.00 1005.3
20260509000149 0 70 4.3 8.7 0.00 0.00 0.00 1005.2
20260508235638 0 75 3.5 7.8 0.00 0.00 0.00 1005.2
20260508235359 0 71 3.5 7.0 0.00 0.00 0.00 1005.5
20260508234849 0 71 2.6 7.0 0.00 0.00 0.00 1005.5
20260508234108 0 70 3.5 7.8 0.00 0.00 0.00 1005.8
20260508233559 0 10 4.3 7.8 0.00 0.00 0.00 1005.8
20260508233048 0 10 4.3 7.0 0.00 0.00 0.00 1005.3
20260508232539 0 61 4.3 7.0 0.00 0.00 0.00 1005.2
20260508232028 0 75 5.2 8.7 0.00 0.00 0.00 1004.9
20260508231009 0 84 6.1 9.6 0.00 0.00 0.00 1004.7
20260508230731 0 90 5.2 8.7 0.00 0.00 0.00 1004.9
20260508225948 0 70 4.3 7.8 0.00 0.00 0.00 1005.2
20260508225439 0 73 4.3 7.8 0.00 0.00 0.00 1005.2
20260508224929 0 10 4.3 7.8 0.00 0.00 0.00 1005.3
20260508224649 0 66 5.2 7.8 0.00 0.00 0.00 1005.3
20260508223909 0 59 4.3 7.8 0.00 0.00 0.00 1005.4
20260508223359 0 65 3.5 7.0 0.00 0.00 0.00 1005.4
20260508222849 0 10 3.5 7.0 0.00 0.00 0.00 1005.5
20260508222339 0 67 3.5 7.0 0.00 0.00 0.00 1005.5
20260508221828 0 74 2.6 7.0 0.00 0.00 0.00 1005.8
20260508221549 0 21 3.5 7.0 0.00 0.00 0.00 1005.8
20260508220800 0 77 4.3 8.7 0.00 0.00 0.00 1005.7
20260508220242 0 100 6.1 8.7 0.00 0.00 0.00 1005.4
20260508215222 0 74 4.3 7.0 0.00 0.00 0.00 1005.7
20260508214713 0 75 3.5 7.0 0.00 0.00 0.00 1005.7
20260508214204 0 93 2.6 7.0 0.00 0.00 0.00 1005.7
20260508213653 0 55 3.5 7.0 0.00 0.00 0.00 1006.1
20260508213143 0 10 4.3 7.8 0.00 0.00 0.00 1006.0
20260508212633 0 73 4.3 7.8 0.00 0.00 0.00 1005.9
20260508212123 0 58 3.5 7.0 0.00 0.00 0.00 1006.0
20260508211612 0 58 4.3 7.8 0.00 0.00 0.00 1006.2
20260508211102 0 68 4.3 7.8 0.00 0.00 0.00 1006.3
20260508210552 0 59 4.3 6.1 0.00 0.00 0.00 1006.4
20260508210042 0 60 4.3 8.7 0.00 0.00 0.00 1006.4
20260508205532 0 72 5.2 8.7 0.00 0.00 0.00 1006.5
20260508205022 0 10 5.2 8.7 0.00 0.00 0.00 1006.4
20260508204512 0 54 5.2 8.7 0.00 0.00 0.00 1006.5
20260508204004 0 62 4.3 8.7 0.00 0.00 0.00 1006.6
20260508203450 0 63 4.3 8.7 0.00 0.00 0.00 1006.7
20260508203212 0 61 4.3 8.7 0.00 0.00 0.00 1006.9
20260508202430 0 10 4.3 7.8 0.00 0.00 0.00 1006.9
20260508201916 0 42 5.2 8.7 0.00 0.00 0.00 1006.9
20260508201408 0 53 6.1 8.7 0.00 0.00 0.00 1006.9
20260508200900 0 54 5.2 8.7 0.00 0.00 0.00 1006.8
20260508200354 0 65 6.1 9.6 0.00 0.00 0.00 1006.9
20260508200115 0 52 5.2 9.6 0.00 0.00 0.00 1007.0
20260508195335 0 52 6.1 9.6 0.00 0.00 0.00 1007.0
20260508194829 0 10 7.0 9.6 0.00 0.00 0.00 1007.0
20260508194554 0 50 6.1 9.6 0.00 0.00 0.00 1007.2
20260508193808 0 53 5.2 9.6 0.00 0.00 0.00 1007.1
20260508193300 0 59 5.2 7.8 0.00 0.00 0.00 1007.2
20260508192752 0 41 5.2 7.8 0.00 0.00 0.00 1007.3
20260508192249 0 10 6.1 9.6 0.00 0.00 0.00 1006.4
20260508192013 0 63 5.2 9.6 0.00 0.00 0.00 1007.2
20260508191232 0 58 5.2 8.7 0.00 0.00 0.00 1007.4
20260508190714 0 57 5.2 8.7 0.00 0.00 0.00 1007.5
20260508190209 0 47 4.3 7.8 0.00 0.00 0.00 1007.6
20260508185206 0 10 4.3 7.8 0.00 0.00 0.00 1007.6
20260508184701 0 56 4.3 7.8 0.00 0.00 0.00 1007.5
20260508184152 0 10 3.5 7.0 0.00 0.00 0.00 1007.5
20260508183648 0 10 2.6 7.0 0.00 0.00 0.00 1007.5
20260508183140 0 10 2.6 5.2 0.00 0.00 0.00 1007.6
20260508182632 0 10 3.5 7.8 0.00 0.00 0.00 1007.6
20260508182125 0 20 3.5 7.8 0.00 0.00 0.00 1007.7
20260508181621 0 15 3.5 7.0 0.00 0.00 0.00 1007.9
20260508181115 0 355 4.3 9.6 0.00 0.00 0.00 1008.0
20260508180842 0 28 4.3 9.6 0.00 0.00 0.00 1007.9
20260508180109 0 35 3.5 7.0 0.00 0.00 0.00 1007.9
20260508175608 0 27 3.5 9.6 0.00 0.00 0.00 1007.9
20260508175105 0 34 4.3 9.6 0.00 0.00 0.00 1008.1
20260508174834 0 15 5.2 9.6 0.00 0.00 0.00 1008.2
20260508173547 0 10 6.1 9.6 0.00 0.00 0.00 1008.1
20260508172535 0 10 2.6 8.7 0.00 0.00 0.00 1008.0
20260508172031 0 53 2.6 5.2 0.00 0.00 0.00 1008.0
20260508171520 0 58 1.7 5.2 0.00 0.00 0.00 1008.1
20260508171016 0 35 1.7 4.3 0.00 0.00 0.00 1008.1
20260508170736 0 10 2.6 6.1 0.00 0.00 0.00 1008.1
20260508170002 0 46 1.7 6.1 0.00 0.00 0.00 1008.2
20260508165458 0 83 2.6 7.0 0.00 0.00 0.00 1008.2
20260508165219 0 67 3.5 7.8 0.00 0.00 0.00 1008.1
20260508164442 0 95 2.6 7.8 0.00 0.00 0.00 1008.2
20260508163933 0 82 2.6 7.0 0.00 0.00 0.00 1008.3
20260508163422 0 94 2.6 5.2 0.00 0.00 0.00 1008.5
20260508162911 0 80 1.7 5.2 0.00 0.00 0.00 1008.5
20260508161852 0 108 1.7 6.1 0.00 0.00 0.00 1008.4
20260508161341 0 80 0.9 6.1 0.00 0.00 0.00 1008.5
20260508160837 0 123 0.9 3.5 0.00 0.00 0.00 1008.6
20260508160327 0 111 0.9 3.5 0.00 0.00 0.00 1008.6
20260508155818 0 82 1.7 6.1 0.00 0.00 0.00 1008.6
20260508155308 0 96 2.6 6.1 0.00 0.00 0.00 1008.5
20260508154757 0 98 2.6 3.5 0.00 0.00 0.00 1008.7
20260508154247 0 114 1.7 3.5 0.00 0.00 0.00 1008.8
20260508154007 0 101 0.9 3.5 0.00 0.00 0.00 1009.0
20260508153227 0 84 0.9 4.3 0.00 0.00 0.00 1009.0
20260508152717 0 92 1.7 4.3 0.00 0.00 0.00 1009.0
20260508152438 0 104 1.7 6.1 0.00 0.00 0.00 1009.1
20260508151929 0 88 1.7 6.1 0.00 0.00 0.00 1009.1
20260508151147 0 95 1.7 3.5 0.00 0.00 0.00 1009.1
20260508150637 0 108 0.9 3.5 0.00 0.00 0.00 1009.3
20260508150128 0 115 1.7 6.1 0.00 0.00 0.00 1009.3
20260508145617 0 138 2.6 6.1 0.00 0.00 0.00 1009.4
20260508145107 0 82 2.6 7.0 0.00 0.00 0.00 1009.4
20260508144557 0 102 3.5 7.0 0.00 0.00 0.00 1009.3
20260508144048 0 108 3.5 7.0 0.00 0.00 0.00 1009.2
20260508143809 0 67 1.7 7.0 0.00 0.00 0.00 1009.3
20260508143027 0 84 1.7 3.5 0.00 0.00 0.00 1009.5
20260508142517 0 97 0.9 3.5 0.00 0.00 0.00 1009.7
20260508142008 0 77 1.7 3.5 0.00 0.00 0.00 1009.8
20260508141458 0 68 0.9 3.5 0.00 0.00 0.00 1009.7
20260508140947 0 35 1.7 5.2 0.00 0.00 0.00 1009.6
20260508140437 0 52 3.5 7.0 0.00 0.00 0.00 1009.4
20260508135928 0 26 3.5 7.8 0.00 0.00 0.00 1009.3
20260508135650 0 25 2.6 6.1 0.00 0.00 0.00 1009.4
20260508134908 0 28 1.7 6.1 0.00 0.00 0.00 1009.5
20260508134357 0 10 2.6 4.3 0.00 0.00 0.00 1009.7
20260508133847 0 61 3.5 7.8 0.00 0.00 0.00 1009.5
20260508133337 0 58 3.5 7.8 0.00 0.00 0.00 1009.5
20260508132827 0 54 3.5 6.1 0.00 0.00 0.00 1009.6
20260508132548 0 10 2.6 5.2 0.00 0.00 0.00 1009.8
20260508131807 0 67 3.5 7.8 0.00 0.00 0.00 1010.0
20260508131257 0 50 4.3 9.6 0.00 0.00 0.00 1010.1
20260508130748 0 21 3.5 9.6 0.00 0.00 0.00 1010.1
20260508130510 0 10 4.3 9.6 0.00 0.00 0.00 1010.4
20260508125952 0 10 5.2 9.6 0.00 0.00 0.00 1010.5
20260508125441 0 10 7.0 10.4 0.00 0.00 0.00 1010.5
20260508124658 0 10 7.8 10.4 0.00 0.00 0.00 1010.3
20260508124145 0 348 7.8 10.4 0.00 0.00 0.00 1010.3
20260508123633 0 10 7.0 10.4 0.00 0.00 0.00 1010.1
20260508123354 0 10 6.1 9.6 0.00 0.00 0.00 1010.0
20260508122613 0 10 6.1 9.6 0.00 0.00 0.00 1009.8
20260508122332 0 10 7.8 10.4 0.00 0.00 0.00 1009.7
20260508121551 0 10 7.8 10.4 0.00 0.00 0.00 1009.7
20260508121312 0 10 8.7 12.2 0.00 0.00 0.00 1009.7
20260508120531 0 10 7.8 12.2 0.00 0.00 0.00 1009.8
20260508120022 0 326 7.0 10.4 0.00 0.00 0.00 1009.8
20260508115511 0 10 6.1 8.7 0.00 0.00 0.00 1009.9
20260508115001 0 10 6.1 8.7 0.00 0.00 0.00 1009.9
20260508114452 0 327 6.1 8.7 0.00 0.00 0.00 1009.9
20260508113941 0 328 6.1 7.8 0.00 0.00 0.00 1009.8
20260508113432 0 10 6.1 7.8 0.00 0.00 0.00 1009.8
20260508112920 0 320 4.3 7.0 0.00 0.00 0.00 1009.7
20260508112407 0 324 2.6 4.3 0.00 0.00 0.00 1009.4
20260508111857 0 10 0.9 3.5 0.00 0.00 0.00 1009.0
20260508111347 0 352 0.9 1.7 0.00 0.00 0.00 1008.9
20260508110838 0 19 0.9 3.5 0.00 0.00 0.00 1008.7
20260508110335 0 27 1.7 3.5 0.00 0.00 0.00 1008.6
20260508105825 0 44 1.7 4.3 0.00 0.00 0.00 1008.6
20260508105316 0 61 2.6 4.3 0.00 0.00 0.00 1008.6
20260508104805 0 50 2.6 3.5 0.00 0.00 0.00 1008.8
20260508104246 0 62 2.6 3.5 0.00 0.00 0.00 1008.9
20260508103736 0 58 1.7 4.3 0.00 0.00 0.00 1008.9
20260508103225 0 54 1.7 4.3 0.00 0.00 0.00 1009.0
20260508102715 0 45 1.7 5.2 0.00 0.00 0.00 1009.2
20260508102437 0 19 1.7 5.2 0.00 0.00 0.00 1009.2
20260508101656 0 5 0.9 3.5 0.00 0.00 0.00 1009.3
20260508101145 0 52 0.9 3.5 0.00 0.00 0.00 1009.3
20260508100635 0 352 1.7 3.5 0.00 0.00 0.00 1009.6
20260508100125 0 10 0.9 3.5 0.00 0.00 0.00 1009.8
20260508095618 0 311 0.0 2.6 0.00 0.00 0.00 1009.9
20260508095107 0 323 0.9 2.6 0.00 0.00 0.00 1010.0
20260508094600 0 316 0.9 2.6 0.00 0.00 0.00 1010.1
20260508094049 0 316 0.0 1.7 0.00 0.00 0.00 1009.9
20260508093540 0 307 0.0 0.9 0.00 0.00 0.00 1009.8
20260508093300 0 10 0.0 0.0 0.00 0.00 0.00 1009.4
20260508092521 0 42 0.0 0.0 0.00 0.00 0.00 1009.1
20260508092011 0 42 0.0 0.0 0.00 0.00 0.00 1008.9
20260508091505 0 42 0.0 0.0 0.00 0.00 0.00 1008.9
20260508091228 0 42 0.0 0.0 0.00 0.00 0.00 1009.0
20260508090457 0 24 0.0 0.0 0.00 0.00 0.00 1009.3
20260508085953 0 24 0.0 0.0 0.00 0.00 0.00 1009.5
20260508085441 0 24 0.0 0.0 0.00 0.00 0.00 1009.5
20260508084935 0 24 0.0 0.9 0.00 0.00 0.00 1009.5
20260508084430 0 24 0.0 0.9 0.00 0.00 0.00 1009.4
20260508084159 0 15 0.0 0.9 0.00 0.00 0.00 1009.5
20260508083653 0 5 0.0 0.9 0.00 0.00 0.00 1009.8
20260508082919 0 5 0.0 0.9 0.00 0.00 0.00 1009.8
20260508082413 0 15 0.0 1.7 0.00 0.00 0.00 1009.8
20260508081909 0 346 0.9 3.5 0.00 0.00 0.00 1009.9
20260508081402 0 348 0.9 3.5 0.00 0.00 0.00 1009.6
20260508080900 0 338 1.7 3.5 0.00 0.00 0.00 1009.6
20260508080354 0 358 1.7 4.3 0.00 0.00 0.00 1009.5
20260508075851 0 10 1.7 4.3 0.00 0.00 0.00 1009.5
20260508075350 0 15 2.6 5.2 0.00 0.00 0.00 1009.5
20260508074850 0 10 2.6 5.2 0.00 0.00 0.00 1009.6
20260508074334 0 350 2.6 5.2 0.00 0.00 0.00 1009.6
20260508073825 0 352 2.6 4.3 0.00 0.00 0.00 1009.7
20260508073555 0 351 2.6 5.2 0.00 0.00 0.00 1009.9
20260508072826 0 10 2.6 5.2 0.00 0.00 0.00 1009.8
20260508072320 0 10 2.6 7.8 0.00 0.00 0.00 1009.9
20260508071818 0 10 1.7 7.8 0.00 0.00 0.00 1010.0
20260508071312 0 343 2.6 7.8 0.00 0.00 0.00 1010.2
20260508070806 0 10 2.6 7.8 0.00 0.00 0.00 1010.4
20260508070300 0 328 0.9 3.5 0.00 0.00 0.00 1010.5
20260508070028 0 331 0.9 3.5 0.00 0.00 0.00 1010.6
20260508064742 0 334 0.0 2.6 0.00 0.00 0.00 1010.6
20260508064504 0 327 0.0 2.6 0.00 0.00 0.00 1010.5
20260508063221 0 308 0.0 0.9 0.00 0.00 0.00 1010.7
20260508062714 0 295 0.0 0.9 0.00 0.00 0.00 1010.8
20260508062435 0 300 0.0 0.9 0.00 0.00 0.00 1010.7
20260508061658 0 327 0.0 0.9 0.00 0.00 0.00 1010.5
20260508061150 0 1 0.0 0.9 0.00 0.00 0.00 1010.5
20260508060640 0 5 0.0 0.9 0.00 0.00 0.00 1010.5
20260508060136 0 25 0.0 0.9 0.00 0.00 0.00 1010.4
20260508055633 0 75 0.0 0.9 0.00 0.00 0.00 1010.3
20260508055124 0 75 0.0 0.9 0.00 0.00 0.00 1010.4
20260508054103 0 61 0.9 7.0 0.00 0.00 0.00 1010.4
20260508053553 0 87 2.6 7.0 0.00 0.00 0.00 1009.9
20260508053042 0 61 4.3 8.7 0.00 0.00 0.00 1009.6
20260508052532 0 90 4.3 8.7 0.00 0.00 0.00 1009.6
20260508051512 0 112 4.3 9.6 0.00 0.00 0.00 1009.3
20260508051002 0 96 4.3 8.7 0.00 0.00 0.00 1009.3
20260508050452 0 96 6.1 9.6 0.00 0.00 0.00 1009.0
20260508045942 0 90 6.1 9.6 0.00 0.00 0.00 1008.9
20260508045432 0 102 7.8 10.4 0.00 0.00 0.00 1009.1
20260508044921 0 108 7.8 10.4 0.00 0.00 0.00 1009.1
20260508044416 0 112 5.2 10.4 0.00 0.00 0.00 1009.3
20260508043906 0 101 4.3 7.8 0.00 0.00 0.00 1009.8
20260508043357 0 102 6.1 8.7 0.00 0.00 0.00 1009.8
20260508042846 0 100 6.1 8.7 0.00 0.00 0.00 1009.3
20260508042335 0 126 4.3 8.7 0.00 0.00 0.00 1009.5
20260508041825 0 10 4.3 8.7 0.00 0.00 0.00 1010.0
20260508041315 0 10 6.1 8.7 0.00 0.00 0.00 1009.8
20260508040811 0 10 6.1 8.7 0.00 0.00 0.00 1009.6
20260508040532 0 115 3.5 7.8 0.00 0.00 0.00 1009.6
20260508035752 0 117 0.9 3.5 0.00 0.00 0.00 1009.8
20260508035247 0 132 0.9 2.6 0.00 0.00 0.00 1010.3
20260508034743 0 110 0.0 2.6 0.00 0.00 0.00 1010.4
20260508034233 0 69 0.0 0.0 0.00 0.00 0.00 1010.8
20260508033724 0 69 0.0 0.9 0.00 0.00 0.00 1010.6
20260508033443 0 69 0.0 0.9 0.00 0.00 0.00 1010.9
20260508032703 0 314 0.0 0.0 0.00 0.00 0.00 1010.9
20260508032153 0 315 0.0 0.9 0.00 0.00 0.00 1011.2
20260508031643 0 322 0.0 0.9 0.00 0.00 0.00 1011.2